VE7PMC Weather Reports


time (UTC)temp
C
wind
direction
speed
KPH
gust
KPH
rain 1hr
cm
rain 24hr
cm
rain mn
cm
humidity
%
barometer
mb
20260504081540 -17 0.0 0.0 0.00 0.00 0.00 1004.5
20260504044544 16 0.0 0.0 0.00 0.00 0.00 1003.6
20260504043049 -17 0.0 0.0 0.00 0.00 0.00 1003.5
20260504041613 -17 0.0 0.0 0.00 0.00 0.00 1003.5
20260504040038 -17 0.0 0.0 0.00 0.00 0.00 1003.6
20260504034545 -17 0.0 0.0 0.00 0.00 0.00 1003.5
20260504033041 22 0.0 0.0 0.00 0.00 0.00 30 1003.0
20260504031552 22 0.0 0.0 0.00 0.00 0.00 30 1003.0
20260504030116 22 340 0.0 0.0 0.00 0.00 0.00 30 1003.4
20260504024544 22 340 0.0 0.0 0.00 0.00 0.00 27 1003.3
20260504023048 23 340 0.0 0.0 0.00 0.00 0.00 27 1003.2
20260504021552 24 0.0 0.0 0.00 0.00 0.00 22 1003.1
20260504020057 25 340 0.0 0.0 0.00 0.00 0.00 22 1003.1
20260504014543 26 340 0.0 0.0 0.00 0.00 0.00 22 1003.0
20260504013106 26 340 1.6 0.0 0.00 0.00 0.00 19 1002.9
20260504011553 26 340 0.0 0.0 0.00 0.00 0.00 19 1003.1
20260504010045 26 342 1.6 0.0 0.00 0.00 0.00 19 1003.3
20260504004549 26 0.0 0.0 0.00 0.00 0.00 19 1003.5
20260504003042 26 342 0.0 0.0 0.00 0.00 0.00 19 1003.7
20260504001548 26 340 0.0 0.0 0.00 0.00 0.00 19 1003.7
20260504000051 26 0.0 0.0 0.00 0.00 0.00 19 1003.9
20260503234559 26 340 3.2 0.0 0.00 0.00 0.00 19 1004.0
20260503233046 26 348 0.0 0.0 0.00 0.00 0.00 19 1004.1
20260503231548 27 349 0.0 0.0 0.00 0.00 0.00 19 1004.4
20260503230112 26 342 1.6 0.0 0.00 0.00 0.00 19 1005.2
20260503224553 27 345 0.0 0.0 0.00 0.00 0.00 19 1005.3
20260503223055 27 14 0.0 0.0 0.00 0.00 0.00 19 1005.5
20260503221617 27 33 0.0 0.0 0.00 0.00 0.00 18 1005.6
20260503220040 27 328 1.6 0.0 0.00 0.00 0.00 19 1005.8
20260503214549 27 346 1.6 0.0 0.00 0.00 0.00 18 1006.0
20260503213053 26 346 0.0 0.0 0.00 0.00 0.00 20 1006.3
20260503211555 26 333 0.0 0.0 0.00 0.00 0.00 19 1006.6
20260503210039 25 340 1.6 0.0 0.00 0.00 0.00 20 1006.5
20260503204545 25 346 0.0 0.0 0.00 0.00 0.00 21 1006.8
20260503203049 25 324 0.0 0.0 0.00 0.00 0.00 22 1007.0
20260503201555 25 324 0.0 0.0 0.00 0.00 0.00 22 1007.4
20260503200038 24 324 0.0 0.0 0.00 0.00 0.00 24 1007.9
20260503194540 23 325 0.0 0.0 0.00 0.00 0.00 22 1008.3
20260503193044 23 325 0.0 0.0 0.00 0.00 0.00 26 1008.5
20260503191551 23 325 0.0 0.0 0.00 0.00 0.00 24 1008.9
20260503190115 22 325 0.0 0.0 0.00 0.00 0.00 26 1009.1
20260503184556 22 325 0.0 0.0 0.00 0.00 0.00 25 1009.3
20260503183038 22 325 0.0 0.0 0.00 0.00 0.00 25 1009.8
20260503181550 21 338 0.0 0.0 0.00 0.00 0.00 27 1009.0
20260503180052 21 338 0.0 0.0 0.00 0.00 0.00 28 1010.1
20260503174614 20 338 0.0 0.0 0.00 0.00 0.00 30 1010.1
20260503173116 20 338 0.0 0.0 0.00 0.00 0.00 32 1010.3
20260503171556 20 338 0.0 0.0 0.00 0.00 0.00 28 1010.6